| time (UTC) | temp F | wind direction | speed MPH | gust MPH | rain 1hr in | rain 24hr in | rain mn in | humidity % | barometer mb |
| 20260506024047 | 66 | 336 | 0.0 | 0.0 | 0.00 | 0.00 | 0.00 | 78 | 1008.2 |
| 20260506023555 | 67 | 339 | 0.0 | 0.0 | 0.00 | 0.00 | 0.00 | 79 | 1007.8 |
| 20260506023044 | 67 | 332 | 0.0 | 0.0 | 0.00 | 0.00 | 0.00 | 78 | 1007.7 |
| 20260506022605 | 67 | 338 | 0.0 | 0.0 | 0.00 | 0.00 | 0.00 | 78 | 1007.6 |
| 20260506022032 | 68 | 338 | 0.0 | 0.0 | 0.00 | 0.00 | 0.00 | 78 | 1007.6 |
| 20260506021546 | 68 | 334 | 0.0 | 0.0 | 0.00 | 0.00 | 0.00 | 78 | 1007.4 |
| 20260506021038 | 68 | 332 | 0.0 | 0.0 | 0.00 | 0.00 | 0.00 | 78 | 1007.3 |
| 20260506020545 | 68 | 333 | 0.0 | 0.0 | 0.00 | 0.00 | 0.00 | 78 | 1007.4 |
| 20260506020036 | 69 | 338 | 0.0 | 0.0 | 0.00 | 0.00 | 0.00 | 77 | 1007.3 |
| 20260506015547 | 69 | 333 | 0.0 | 0.0 | 0.00 | 0.00 | 0.00 | 77 | 1007.0 |
| 20260506015039 | 69 | 332 | 0.0 | 0.0 | 0.00 | 0.00 | 0.00 | 77 | 1006.9 |
| 20260506014527 | 69 | 333 | 0.0 | 0.0 | 0.00 | 0.00 | 0.00 | 77 | 1006.8 |
| 20260506014039 | 69 | 332 | 0.0 | 0.0 | 0.00 | 0.00 | 0.00 | 76 | 1007.0 |
| 20260506013537 | 69 | 339 | 0.0 | 0.0 | 0.00 | 0.00 | 0.00 | 76 | 1007.0 |
| 20260506013045 | 70 | 334 | 0.0 | 0.0 | 0.00 | 0.00 | 0.00 | 76 | 1006.6 |
| 20260506012558 | 70 | 331 | 0.0 | 0.0 | 0.00 | 0.00 | 0.00 | 75 | 1006.6 |
| 20260506012043 | 71 | 331 | 0.0 | 0.0 | 0.00 | 0.00 | 0.00 | 76 | 1006.3 |
| 20260506011531 | 71 | 339 | 0.0 | 0.0 | 0.00 | 0.00 | 0.00 | 76 | 1006.5 |
| 20260506011043 | 72 | 338 | 0.0 | 0.0 | 0.00 | 0.00 | 0.00 | 75 | 1006.9 |
| 20260506010551 | 73 | 333 | 0.0 | 0.0 | 0.00 | 0.00 | 0.00 | 75 | 1005.7 |
| 20260506010039 | 73 | 338 | 0.0 | 0.0 | 0.00 | 0.00 | 0.00 | 75 | 1005.7 |
| 20260506005549 | 73 | 338 | 0.0 | 0.0 | 0.00 | 0.00 | 0.00 | 75 | 1006.1 |
| 20260506005059 | 74 | 331 | 0.0 | 0.0 | 0.00 | 0.00 | 0.00 | 74 | 1005.8 |
| 20260506004544 | 74 | 332 | 0.0 | 0.0 | 0.00 | 0.00 | 0.00 | 74 | 1005.6 |
| 20260506004041 | 74 | 331 | 0.0 | 0.0 | 0.00 | 0.00 | 0.00 | 73 | 1005.8 |
| 20260506003534 | 74 | 331 | 0.0 | 0.0 | 0.00 | 0.00 | 0.00 | 72 | 1005.8 |
| 20260506003042 | 74 | 331 | 0.0 | 0.0 | 0.00 | 0.00 | 0.00 | 72 | 1005.8 |
| 20260506002530 | 74 | 338 | 0.0 | 0.0 | 0.00 | 0.00 | 0.00 | 72 | 1005.7 |
| 20260506002041 | 74 | 338 | 0.0 | 0.0 | 0.00 | 0.00 | 0.00 | 71 | 1005.9 |
| 20260506001531 | 75 | 331 | 0.0 | 0.0 | 0.00 | 0.00 | 0.00 | 70 | 1005.6 |
| 20260506001040 | 75 | 337 | 0.0 | 0.0 | 0.00 | 0.00 | 0.00 | 70 | 1005.6 |
| 20260506000546 | 75 | 336 | 0.0 | 0.0 | 0.00 | 0.00 | 0.00 | 70 | 1005.7 |
| 20260506000035 | 76 | 337 | 0.0 | 0.0 | 0.00 | 0.00 | 0.00 | 71 | 1005.6 |
| 20260505235549 | 76 | 338 | 0.0 | 0.0 | 0.00 | 0.00 | 0.00 | 70 | 1005.6 |
| 20260505235042 | 76 | 337 | 0.0 | 0.0 | 0.00 | 0.00 | 0.00 | 70 | 1005.3 |
| 20260505234548 | 76 | 338 | 0.0 | 0.0 | 0.00 | 0.00 | 0.00 | 69 | 1005.1 |
| 20260505234041 | 77 | 338 | 0.0 | 0.0 | 0.00 | 0.00 | 0.00 | 69 | 1005.0 |
| 20260505233528 | 77 | 337 | 0.0 | 0.0 | 0.00 | 0.00 | 0.00 | 67 | 1005.0 |
| 20260505233039 | 79 | 338 | 0.0 | 0.0 | 0.00 | 0.00 | 0.00 | 66 | 1005.0 |
| 20260505232609 | 80 | 337 | 0.0 | 0.0 | 0.00 | 0.00 | 0.00 | 64 | 1005.2 |
| 20260505232037 | 80 | 337 | 0.0 | 0.0 | 0.00 | 0.00 | 0.00 | 64 | 1005.0 |
| 20260505231531 | 80 | 337 | 0.0 | 0.0 | 0.00 | 0.00 | 0.00 | 63 | 1004.8 |
| 20260505231058 | 81 | 337 | 0.0 | 0.0 | 0.00 | 0.00 | 0.00 | 62 | 1004.8 |
| 20260505230528 | 82 | 337 | 0.0 | 0.0 | 0.00 | 0.00 | 0.00 | 60 | 1004.5 |
| 20260505230038 | 83 | 336 | 0.0 | 0.0 | 0.00 | 0.00 | 0.00 | 58 | 1004.3 |
| 20260505225532 | 84 | 337 | 0.0 | 0.0 | 0.00 | 0.00 | 0.00 | 57 | 1004.2 |
| 20260505225046 | 84 | 336 | 0.0 | 0.0 | 0.00 | 0.00 | 0.00 | 55 | 1004.3 |
| 20260505224543 | 84 | 336 | 0.0 | 0.0 | 0.00 | 0.00 | 0.00 | 55 | 1004.3 |
| 20260505224049 | 84 | 337 | 0.0 | 0.0 | 0.00 | 0.00 | 0.00 | 54 | 1004.2 |
| 20260505223536 | 85 | 337 | 0.0 | 0.0 | 0.00 | 0.00 | 0.00 | 54 | 1004.1 |
| 20260505223027 | 85 | 336 | 0.0 | 0.0 | 0.00 | 0.00 | 0.00 | 53 | 1004.1 |
| 20260505222539 | 86 | 336 | 0.0 | 0.0 | 0.00 | 0.00 | 0.00 | 52 | 1004.0 |
| 20260505222046 | 86 | 336 | 0.0 | 0.0 | 0.00 | 0.00 | 0.00 | 52 | 1003.8 |
| 20260505221537 | 87 | 337 | 0.0 | 0.0 | 0.00 | 0.00 | 0.00 | 52 | 1003.7 |
| 20260505221028 | 87 | 336 | 0.0 | 0.0 | 0.00 | 0.00 | 0.00 | 53 | 1003.7 |
| 20260505220558 | 87 | 336 | 0.0 | 0.0 | 0.00 | 0.00 | 0.00 | 54 | 1003.8 |
| 20260505220035 | 87 | 334 | 0.0 | 0.0 | 0.00 | 0.00 | 0.00 | 58 | 1003.7 |
| 20260505215543 | 88 | 334 | 0.0 | 0.0 | 0.00 | 0.00 | 0.00 | 57 | 1003.7 |
| 20260505215037 | 88 | 334 | 0.0 | 0.0 | 0.00 | 0.00 | 0.00 | 57 | 1003.7 |
| 20260505214536 | 89 | 333 | 0.0 | 0.0 | 0.00 | 0.00 | 0.00 | 56 | 1003.9 |
| 20260505214045 | 89 | 335 | 0.0 | 0.0 | 0.00 | 0.00 | 0.00 | 57 | 1003.9 |
| 20260505213533 | 89 | 333 | 0.0 | 0.0 | 0.00 | 0.00 | 0.00 | 57 | 1003.9 |
| 20260505213040 | 89 | 334 | 0.0 | 0.0 | 0.00 | 0.00 | 0.00 | 58 | 1004.0 |
| 20260505212531 | 88 | 334 | 0.0 | 0.0 | 0.00 | 0.00 | 0.00 | 59 | 1003.9 |
| 20260505212043 | 88 | 333 | 0.0 | 0.0 | 0.00 | 0.00 | 0.00 | 58 | 1004.0 |
| 20260505211531 | 89 | 335 | 0.0 | 0.0 | 0.00 | 0.00 | 0.00 | 58 | 1004.0 |
| 20260505211039 | 89 | 334 | 0.0 | 0.0 | 0.00 | 0.00 | 0.00 | 57 | 1004.2 |
| 20260505210550 | 89 | 333 | 0.0 | 0.0 | 0.00 | 0.00 | 0.00 | 58 | 1004.2 |
| 20260505210036 | 88 | 335 | 0.0 | 0.0 | 0.00 | 0.00 | 0.00 | 58 | 1004.3 |
| 20260505205548 | 88 | 334 | 0.0 | 0.0 | 0.00 | 0.00 | 0.00 | 59 | 1004.1 |
| 20260505205038 | 88 | 334 | 0.0 | 0.0 | 0.00 | 0.00 | 0.00 | 60 | 1004.2 |
| 20260505204532 | 87 | 334 | 0.0 | 0.0 | 0.00 | 0.00 | 0.00 | 60 | 1004.4 |
| 20260505204040 | 87 | 334 | 0.0 | 0.0 | 0.00 | 0.00 | 0.00 | 61 | 1004.4 |
| 20260505203533 | 86 | 334 | 0.0 | 0.0 | 0.00 | 0.00 | 0.00 | 60 | 1004.3 |
| 20260505203042 | 87 | 334 | 0.0 | 0.0 | 0.00 | 0.00 | 0.00 | 60 | 1004.5 |
| 20260505202528 | 87 | 333 | 0.0 | 0.0 | 0.00 | 0.00 | 0.00 | 60 | 1004.6 |
| 20260505202040 | 86 | 335 | 0.0 | 0.0 | 0.00 | 0.00 | 0.00 | 60 | 1004.6 |
| 20260505201555 | 86 | 335 | 0.0 | 0.0 | 0.00 | 0.00 | 0.00 | 61 | 1004.6 |
| 20260505201042 | 86 | 335 | 0.0 | 0.0 | 0.00 | 0.00 | 0.00 | 60 | 1004.6 |
| 20260505200537 | 86 | 335 | 0.0 | 0.0 | 0.00 | 0.00 | 0.00 | 61 | 1004.5 |
| 20260505200026 | 86 | 329 | 0.0 | 0.0 | 0.00 | 0.00 | 0.00 | 61 | 1004.6 |
| 20260505195540 | 87 | 334 | 0.0 | 0.0 | 0.00 | 0.00 | 0.00 | 60 | 1004.6 |
| 20260505195110 | 87 | 336 | 0.0 | 0.0 | 0.00 | 0.00 | 0.00 | 60 | 1004.7 |
| 20260505194600 | 87 | 333 | 0.0 | 0.0 | 0.00 | 0.00 | 0.00 | 59 | 1004.7 |
| 20260505194048 | 87 | 334 | 0.0 | 0.0 | 0.00 | 0.00 | 0.00 | 61 | 1004.7 |
| 20260505193545 | 87 | 334 | 0.0 | 0.0 | 0.00 | 0.00 | 0.00 | 60 | 1004.6 |
| 20260505193033 | 86 | 335 | 0.0 | 0.0 | 0.00 | 0.00 | 0.00 | 63 | 1004.5 |
| 20260505192542 | 86 | 335 | 0.0 | 0.0 | 0.00 | 0.00 | 0.00 | 61 | 1004.5 |
| 20260505192032 | 85 | 333 | 0.0 | 0.0 | 0.00 | 0.00 | 0.00 | 63 | 1004.6 |
| 20260505191610 | 85 | 335 | 0.0 | 0.0 | 0.00 | 0.00 | 0.00 | 64 | 1004.5 |
| 20260505191101 | 85 | 333 | 0.0 | 0.0 | 0.00 | 0.00 | 0.00 | 65 | 1004.4 |
| 20260505190548 | 85 | 334 | 0.0 | 0.0 | 0.00 | 0.00 | 0.00 | 66 | 1004.4 |
| 20260505190042 | 85 | 333 | 0.0 | 0.0 | 0.00 | 0.00 | 0.00 | 67 | 1004.4 |
| 20260505185531 | 85 | 336 | 0.0 | 0.0 | 0.00 | 0.00 | 0.00 | 67 | 1004.4 |
| 20260505185037 | 85 | 333 | 0.0 | 0.0 | 0.00 | 0.00 | 0.00 | 67 | 1004.6 |
| 20260505184545 | 84 | 333 | 0.0 | 0.0 | 0.00 | 0.00 | 0.00 | 68 | 1004.7 |
| 20260505184042 | 84 | 335 | 0.0 | 0.0 | 0.00 | 0.00 | 0.00 | 69 | 1004.6 |
| 20260505183531 | 83 | 335 | 0.0 | 0.0 | 0.00 | 0.00 | 0.00 | 69 | 1004.7 |
| 20260505183037 | 83 | 330 | 0.0 | 0.0 | 0.00 | 0.00 | 0.00 | 70 | 1004.6 |
| 20260505182535 | 83 | 334 | 0.0 | 0.0 | 0.00 | 0.00 | 0.00 | 70 | 1004.7 |
| 20260505182043 | 82 | 333 | 0.0 | 0.0 | 0.00 | 0.00 | 0.00 | 70 | 1004.8 |
| 20260505181536 | 82 | 335 | 0.0 | 0.0 | 0.00 | 0.00 | 0.00 | 70 | 1004.9 |
| 20260505181044 | 83 | 335 | 0.0 | 0.0 | 0.00 | 0.00 | 0.00 | 69 | 1004.8 |
| 20260505180532 | 83 | 334 | 0.0 | 0.0 | 0.00 | 0.00 | 0.00 | 69 | 1004.8 |
| 20260505180039 | 83 | 336 | 0.0 | 0.0 | 0.00 | 0.00 | 0.00 | 70 | 1004.7 |
| 20260505175530 | 82 | 333 | 0.0 | 0.0 | 0.00 | 0.00 | 0.00 | 70 | 1004.7 |
| 20260505175043 | 82 | 335 | 0.0 | 0.0 | 0.00 | 0.00 | 0.00 | 72 | 1004.8 |
| 20260505174531 | 81 | 335 | 0.0 | 0.0 | 0.00 | 0.00 | 0.00 | 71 | 1004.7 |
| 20260505174038 | 82 | 333 | 0.0 | 0.0 | 0.00 | 0.00 | 0.00 | 71 | 1004.8 |
| 20260505173545 | 81 | 335 | 0.0 | 0.0 | 0.00 | 0.00 | 0.00 | 72 | 1004.8 |
| 20260505173039 | 81 | 335 | 0.0 | 0.0 | 0.00 | 0.00 | 0.00 | 73 | 1004.7 |
| 20260505172529 | 80 | 334 | 0.0 | 0.0 | 0.00 | 0.00 | 0.00 | 74 | 1004.7 |
| 20260505172049 | 80 | 334 | 0.0 | 0.0 | 0.00 | 0.00 | 0.00 | 74 | 1004.7 |
| 20260505171544 | 79 | 336 | 0.0 | 0.0 | 0.00 | 0.00 | 0.00 | 74 | 1004.9 |
| 20260505171035 | 79 | 334 | 0.0 | 0.0 | 0.00 | 0.00 | 0.00 | 75 | 1004.6 |
| 20260505170544 | 79 | 336 | 0.0 | 0.0 | 0.00 | 0.00 | 0.00 | 75 | 1005.2 |
| 20260505170051 | 79 | 335 | 0.0 | 0.0 | 0.00 | 0.00 | 0.00 | 75 | 1004.8 |
| 20260505165602 | 79 | 336 | 0.0 | 0.0 | 0.00 | 0.00 | 0.00 | 75 | 1004.9 |
| 20260505165033 | 78 | 336 | 0.0 | 0.0 | 0.00 | 0.00 | 0.00 | 76 | 1004.8 |
| 20260505164541 | 78 | 334 | 0.0 | 0.0 | 0.00 | 0.00 | 0.00 | 76 | 1004.7 |
| 20260505164027 | 78 | 336 | 0.0 | 0.0 | 0.00 | 0.00 | 0.00 | 76 | 1005.3 |
| 20260505163537 | 78 | 336 | 0.0 | 0.0 | 0.00 | 0.00 | 0.00 | 75 | 1004.2 |
| 20260505163029 | 78 | 335 | 0.0 | 0.0 | 0.00 | 0.00 | 0.00 | 76 | 1004.7 |
| 20260505162542 | 78 | 335 | 0.0 | 0.0 | 0.00 | 0.00 | 0.00 | 75 | 1005.3 |
| 20260505162031 | 78 | 336 | 0.0 | 0.0 | 0.00 | 0.00 | 0.00 | 75 | 1005.1 |
| 20260505161541 | 78 | 336 | 0.0 | 0.0 | 0.00 | 0.00 | 0.00 | 75 | 1004.6 |
| 20260505161055 | 78 | 336 | 0.0 | 0.0 | 0.00 | 0.00 | 0.00 | 75 | 1004.7 |
| 20260505160541 | 78 | 335 | 0.0 | 0.0 | 0.00 | 0.00 | 0.00 | 75 | 1004.6 |
| 20260505153032 | 77 | 336 | 0.0 | 0.0 | 0.00 | 0.00 | 0.00 | 78 | 1004.4 |
| 20260505152559 | 77 | 336 | 0.0 | 0.0 | 0.00 | 0.00 | 0.00 | 78 | 1004.4 |
| 20260505152047 | 77 | 335 | 0.0 | 0.0 | 0.00 | 0.00 | 0.00 | 78 | 1004.7 |
| 20260505151536 | 77 | 335 | 0.0 | 0.0 | 0.00 | 0.00 | 0.00 | 78 | 1004.8 |
| 20260505151030 | 77 | 336 | 0.0 | 0.0 | 0.00 | 0.00 | 0.00 | 79 | 1004.7 |
| 20260505150544 | 76 | 336 | 0.0 | 0.0 | 0.00 | 0.00 | 0.00 | 79 | 1004.8 |
| 20260505140532 | 74 | 336 | 0.0 | 0.0 | 0.00 | 0.00 | 0.00 | 82 | 1004.5 |
| 20260505125041 | 72 | 335 | 0.0 | 0.0 | 0.00 | 0.00 | 0.00 | 85 | 1004.4 |
| 20260505124531 | 72 | 336 | 0.0 | 0.0 | 0.00 | 0.00 | 0.00 | 85 | 1004.3 |
| 20260505124105 | 72 | 336 | 0.0 | 0.0 | 0.00 | 0.00 | 0.00 | 85 | 1004.1 |
| 20260505123533 | 72 | 336 | 0.0 | 0.0 | 0.00 | 0.00 | 0.00 | 85 | 1004.1 |
| 20260505123026 | 72 | 336 | 0.0 | 0.0 | 0.00 | 0.00 | 0.00 | 86 | 1004.2 |
| 20260505122600 | 71 | 336 | 0.0 | 0.0 | 0.00 | 0.00 | 0.00 | 86 | 1004.2 |
| 20260505122032 | 71 | 334 | 0.0 | 0.0 | 0.00 | 0.00 | 0.00 | 86 | 1004.1 |
| 20260505121546 | 71 | 336 | 0.0 | 0.0 | 0.00 | 0.00 | 0.00 | 87 | 1004.1 |
| 20260505121044 | 71 | 336 | 0.0 | 0.0 | 0.00 | 0.00 | 0.00 | 87 | 1004.0 |
| 20260505120551 | 71 | 335 | 0.0 | 0.0 | 0.00 | 0.00 | 0.00 | 87 | 1004.0 |
| 20260505120043 | 71 | 334 | 0.0 | 0.0 | 0.00 | 0.00 | 0.00 | 86 | 1003.9 |
| 20260505115530 | 71 | 336 | 0.0 | 0.0 | 0.00 | 0.00 | 0.00 | 86 | 1003.9 |
| 20260505115037 | 71 | 336 | 0.0 | 0.0 | 0.00 | 0.00 | 0.00 | 86 | 1003.9 |
| 20260505114527 | 71 | 334 | 0.0 | 0.0 | 0.00 | 0.00 | 0.00 | 86 | 1003.8 |
| 20260505114038 | 71 | 336 | 0.0 | 0.0 | 0.00 | 0.00 | 0.00 | 86 | 1003.7 |
| 20260505113528 | 71 | 336 | 0.0 | 0.0 | 0.00 | 0.00 | 0.00 | 86 | 1003.8 |
| 20260505113059 | 71 | 335 | 0.0 | 0.0 | 0.00 | 0.00 | 0.00 | 86 | 1003.8 |
| 20260505112531 | 71 | 336 | 0.0 | 0.0 | 0.00 | 0.00 | 0.00 | 85 | 1003.8 |
| 20260505112030 | 71 | 336 | 0.0 | 0.0 | 0.00 | 0.00 | 0.00 | 85 | 1003.7 |
| 20260505111553 | 71 | 336 | 0.0 | 0.0 | 0.00 | 0.00 | 0.00 | 85 | 1003.7 |
| 20260505111043 | 71 | 336 | 0.0 | 0.0 | 0.00 | 0.00 | 0.00 | 85 | 1003.6 |
| 20260505110536 | 71 | 335 | 0.0 | 0.0 | 0.00 | 0.00 | 0.00 | 85 | 1003.6 |
| 20260505102042 | 71 | 336 | 0.0 | 0.0 | 0.00 | 0.00 | 0.00 | 86 | 1003.8 |
| 20260505101535 | 71 | 336 | 0.0 | 0.0 | 0.00 | 0.00 | 0.00 | 86 | 1003.7 |
| 20260505101042 | 71 | 336 | 0.0 | 0.0 | 0.00 | 0.00 | 0.00 | 86 | 1003.8 |
| 20260505100535 | 71 | 334 | 0.0 | 0.0 | 0.00 | 0.00 | 0.00 | 86 | 1003.7 |
| 20260505100047 | 71 | 335 | 0.0 | 0.0 | 0.00 | 0.00 | 0.00 | 86 | 1003.7 |
| 20260505095534 | 71 | 336 | 0.0 | 0.0 | 0.00 | 0.00 | 0.00 | 86 | 1003.7 |
| 20260505095031 | 71 | 335 | 0.0 | 0.0 | 0.00 | 0.00 | 0.00 | 86 | 1003.8 |
| 20260505094659 | 71 | 336 | 0.0 | 0.0 | 0.00 | 0.00 | 0.00 | 86 | 1003.8 |
| 20260505094032 | 71 | 336 | 0.0 | 0.0 | 0.00 | 0.00 | 0.00 | 86 | 1003.7 |
| 20260505093537 | 71 | 334 | 0.0 | 0.0 | 0.00 | 0.00 | 0.00 | 86 | 1003.9 |
| 20260505093047 | 71 | 334 | 0.0 | 0.0 | 0.00 | 0.00 | 0.00 | 86 | 1004.0 |
| 20260505092540 | 71 | 336 | 0.0 | 0.0 | 0.00 | 0.00 | 0.00 | 86 | 1004.1 |
| 20260505092031 | 71 | 336 | 0.0 | 0.0 | 0.00 | 0.00 | 0.00 | 86 | 1004.0 |
| 20260505091558 | 71 | 336 | 0.0 | 0.0 | 0.00 | 0.00 | 0.00 | 86 | 1004.1 |
| 20260505091047 | 70 | 336 | 0.0 | 0.0 | 0.00 | 0.00 | 0.00 | 86 | 1004.3 |
| 20260505090537 | 70 | 336 | 0.0 | 0.0 | 0.00 | 0.00 | 0.00 | 86 | 1004.1 |
| 20260505090031 | 70 | 336 | 0.0 | 0.0 | 0.00 | 0.00 | 0.00 | 86 | 1004.2 |
| 20260505085605 | 70 | 336 | 0.0 | 0.0 | 0.00 | 0.00 | 0.00 | 86 | 1004.2 |
| 20260505085035 | 71 | 335 | 0.0 | 0.0 | 0.00 | 0.00 | 0.00 | 86 | 1004.1 |
| 20260505084546 | 71 | 336 | 0.0 | 0.0 | 0.00 | 0.00 | 0.00 | 85 | 1004.1 |
| 20260505084038 | 71 | 335 | 0.0 | 0.0 | 0.00 | 0.00 | 0.00 | 85 | 1004.1 |
| 20260505083545 | 71 | 334 | 0.0 | 0.0 | 0.00 | 0.00 | 0.00 | 85 | 1004.1 |
| 20260505083030 | 71 | 336 | 0.0 | 0.0 | 0.00 | 0.00 | 0.00 | 85 | 1004.2 |
| 20260505082546 | 71 | 334 | 0.0 | 0.0 | 0.00 | 0.00 | 0.00 | 85 | 1004.1 |
| 20260505082053 | 71 | 336 | 0.0 | 0.0 | 0.00 | 0.00 | 0.00 | 84 | 1004.1 |
| 20260505081546 | 71 | 335 | 0.0 | 0.0 | 0.00 | 0.00 | 0.00 | 84 | 1004.2 |
| 20260505081036 | 71 | 336 | 0.0 | 0.0 | 0.00 | 0.00 | 0.00 | 84 | 1004.3 |
| 20260505080531 | 71 | 336 | 0.0 | 0.0 | 0.00 | 0.00 | 0.00 | 84 | 1004.3 |
| 20260505080041 | 71 | 336 | 0.0 | 0.0 | 0.00 | 0.00 | 0.00 | 83 | 1004.3 |
| 20260505075532 | 71 | 336 | 0.0 | 0.0 | 0.00 | 0.00 | 0.00 | 83 | 1004.5 |
| 20260505075044 | 72 | 339 | 0.0 | 0.0 | 0.00 | 0.00 | 0.00 | 83 | 1004.4 |
| 20260505074537 | 72 | 337 | 0.0 | 0.0 | 0.00 | 0.00 | 0.00 | 83 | 1004.5 |
| 20260505074050 | 72 | 335 | 0.0 | 0.0 | 0.00 | 0.00 | 0.00 | 82 | 1004.6 |
| 20260505073539 | 72 | 335 | 0.0 | 0.0 | 0.00 | 0.00 | 0.00 | 82 | 1004.7 |
| 20260505073029 | 72 | 334 | 0.0 | 0.0 | 0.00 | 0.00 | 0.00 | 82 | 1004.7 |
| 20260505072603 | 72 | 335 | 0.0 | 0.0 | 0.00 | 0.00 | 0.00 | 81 | 1004.8 |
| 20260505072029 | 72 | 334 | 0.0 | 0.0 | 0.00 | 0.00 | 0.00 | 81 | 1004.9 |
| 20260505071541 | 72 | 336 | 0.0 | 0.0 | 0.00 | 0.00 | 0.00 | 81 | 1004.8 |
| 20260505071034 | 72 | 336 | 0.0 | 0.0 | 0.00 | 0.00 | 0.00 | 81 | 1004.8 |
| 20260505070548 | 72 | 335 | 0.0 | 0.0 | 0.00 | 0.00 | 0.00 | 81 | 1004.9 |
| 20260505070047 | 72 | 334 | 0.0 | 0.0 | 0.00 | 0.00 | 0.00 | 81 | 1005.0 |
| 20260505065538 | 72 | 336 | 0.0 | 0.0 | 0.00 | 0.00 | 0.00 | 80 | 1005.1 |
| 20260505065047 | 72 | 335 | 0.0 | 0.0 | 0.00 | 0.00 | 0.00 | 80 | 1005.2 |
| 20260505064554 | 72 | 335 | 0.0 | 0.0 | 0.00 | 0.00 | 0.00 | 80 | 1005.3 |
| 20260505064046 | 72 | 334 | 0.0 | 0.0 | 0.00 | 0.00 | 0.00 | 80 | 1005.3 |
| 20260505063534 | 72 | 336 | 0.0 | 0.0 | 0.00 | 0.00 | 0.00 | 80 | 1005.3 |
| 20260505063048 | 72 | 334 | 0.0 | 0.0 | 0.00 | 0.00 | 0.00 | 80 | 1005.4 |
| 20260505062536 | 72 | 336 | 0.0 | 0.0 | 0.00 | 0.00 | 0.00 | 79 | 1005.4 |
| 20260505062046 | 72 | 335 | 0.0 | 0.0 | 0.00 | 0.00 | 0.00 | 79 | 1005.4 |
| 20260505061533 | 72 | 336 | 0.0 | 0.0 | 0.00 | 0.00 | 0.00 | 79 | 1005.4 |
| 20260505061040 | 72 | 336 | 0.0 | 0.0 | 0.00 | 0.00 | 0.00 | 79 | 1005.4 |
| 20260505060528 | 72 | 334 | 0.0 | 0.0 | 0.00 | 0.00 | 0.00 | 79 | 1005.4 |
| 20260505060039 | 72 | 334 | 0.0 | 0.0 | 0.00 | 0.00 | 0.00 | 79 | 1005.3 |
| 20260505055532 | 72 | 336 | 0.0 | 0.0 | 0.00 | 0.00 | 0.00 | 79 | 1005.3 |
| 20260505055107 | 72 | 336 | 0.0 | 0.0 | 0.00 | 0.00 | 0.00 | 79 | 1005.3 |
| 20260505054559 | 72 | 333 | 0.0 | 0.0 | 0.00 | 0.00 | 0.00 | 79 | 1005.5 |
| 20260505054046 | 72 | 335 | 0.0 | 0.0 | 0.00 | 0.00 | 0.00 | 79 | 1005.6 |
| 20260505053537 | 72 | 335 | 0.0 | 0.0 | 0.00 | 0.00 | 0.00 | 78 | 1005.6 |
| 20260505053044 | 72 | 335 | 0.0 | 0.0 | 0.00 | 0.00 | 0.00 | 78 | 1005.6 |
| 20260505052537 | 72 | 332 | 0.0 | 0.0 | 0.00 | 0.00 | 0.00 | 78 | 1005.8 |
| 20260505052030 | 72 | 333 | 0.0 | 0.0 | 0.00 | 0.00 | 0.00 | 78 | 1005.9 |
| 20260505051536 | 72 | 334 | 0.0 | 0.0 | 0.00 | 0.00 | 0.00 | 77 | 1005.9 |
| 20260505051044 | 72 | 334 | 0.0 | 0.0 | 0.00 | 0.00 | 0.00 | 77 | 1006.0 |
| 20260505050537 | 72 | 334 | 0.0 | 0.0 | 0.00 | 0.00 | 0.00 | 77 | 1006.0 |
| 20260505041550 | 73 | 334 | 0.0 | 0.0 | 0.00 | 0.00 | 0.00 | 75 | 1006.0 |
| 20260505041036 | 73 | 332 | 0.0 | 0.0 | 0.00 | 0.00 | 0.00 | 75 | 1006.1 |
| 20260505040547 | 73 | 334 | 0.0 | 0.0 | 0.00 | 0.00 | 0.00 | 75 | 1006.1 |
| 20260505040039 | 73 | 333 | 0.0 | 0.0 | 0.00 | 0.00 | 0.00 | 75 | 1006.0 |
| 20260505035608 | 73 | 335 | 0.0 | 0.0 | 0.00 | 0.00 | 0.00 | 75 | 1006.0 |
| 20260505035035 | 73 | 335 | 0.0 | 0.0 | 0.00 | 0.00 | 0.00 | 74 | 1006.0 |
| 20260505034540 | 73 | 334 | 0.0 | 0.0 | 0.00 | 0.00 | 0.00 | 74 | 1006.1 |
| 20260505034032 | 74 | 334 | 0.0 | 0.0 | 0.00 | 0.00 | 0.00 | 74 | 1006.1 |
| 20260505033606 | 74 | 334 | 0.0 | 0.0 | 0.00 | 0.00 | 0.00 | 74 | 1006.2 |
| 20260505033033 | 74 | 334 | 0.0 | 0.0 | 0.00 | 0.00 | 0.00 | 74 | 1006.2 |
| 20260505032540 | 74 | 335 | 0.0 | 0.0 | 0.00 | 0.00 | 0.00 | 74 | 1006.3 |
| 20260505032037 | 74 | 333 | 0.0 | 0.0 | 0.00 | 0.00 | 0.00 | 74 | 1006.2 |
| 20260505031607 | 74 | 336 | 0.0 | 0.0 | 0.00 | 0.00 | 0.00 | 73 | 1006.2 |
| 20260505031037 | 74 | 335 | 0.0 | 0.0 | 0.00 | 0.00 | 0.00 | 73 | 1006.1 |
| 20260505030549 | 74 | 336 | 0.0 | 0.0 | 0.00 | 0.00 | 0.00 | 73 | 1006.1 |
| 20260505030037 | 74 | 335 | 0.0 | 0.0 | 0.00 | 0.00 | 0.00 | 72 | 1006.1 |
| 20260505025544 | 74 | 336 | 0.0 | 0.0 | 0.00 | 0.00 | 0.00 | 72 | 1006.1 |
| 20260505025036 | 74 | 334 | 0.0 | 0.0 | 0.00 | 0.00 | 0.00 | 72 | 1006.0 |
| 20260505024606 | 74 | 335 | 0.0 | 0.0 | 0.00 | 0.00 | 0.00 | 72 | 1006.0 |